Weather History for KARR - January, 2014

Change the Weather History Date:

Thursday, January 23, 2014

  Actual Average Record
Temperature  
Mean Temperature -2 °F 21 °F  
Max Temperature 4 °F 29 °F 46 °F (2002)
Min Temperature -8 °F 12 °F -8 °F (2011)
Degree Days  
Heating Degree Days 67 44  
Month to date heating degree days 845 1014  
Since 1 July heating degree days 3674 3663  
Cooling Degree Days 0 0  
Month to date cooling degree days 0 0  
Year to date cooling degree days 0 0  
Moisture  
Dew Point -10 °F    
Average Humidity 67    
Maximum Humidity 75    
Minimum Humidity 58    
Precipitation  
Precipitation 0.00 in 0.05 in 0.67 in (1999)
Month to date precipitation 0.80 1.00  
Year to date precipitation 0.80 1.00  
Sea Level Pressure  
Sea Level Pressure 30.53 in    
Wind  
Wind Speed 16 mph (WNW)    
Max Wind Speed 24 mph    
Max Gust Speed 28 mph    
Visibility 10 miles    
Events      
T = Trace of Precipitation, MM = Missing Value Source: NWS Daily Summary

Daily Weather History Graph

Daily Weather History Graph

Search for Another Location

Airport or City:

Trip Planner

Search our weather history database for the weather conditions in past years. The results will help you decide how hot, cold, wet, or windy it might be!

Date:

Astronomy

Jan. 23, 2014 Rise Set
Actual Time 7:14 AM CST 4:58 PM CST
Civil Twilight 6:43 AM CST 5:28 PM CST
Nautical Twilight 6:10 AM CST 6:01 PM CST
Astronomical Twilight 5:37 AM CST 6:35 PM CST
Moon No Moon Rise 10:42 AM CST (1/23)
Length of Visible Light 10h 44m
Length of Day
9h 43m
Waning Gibbous, 55% of the Moon is Illuminated
Jan 23
Waning Gibbous
Jan 23
Last Quarter
Jan 30
New
Feb 6
First Quarter
Feb 14
Full

Hourly Weather History & Observations

Time (CST) Temp. Windchill Dew Point Humidity Pressure Visibility Wind Dir Wind Speed Gust Speed Precip Events Conditions
12:52 AM -2.0 °F -22.6 °F -11.0 °F 66% 30.28 in 10.0 mi WNW 16.1 mph - N/A   Clear
1:52 AM -2.0 °F -21.9 °F -11.9 °F 63% 30.31 in 10.0 mi WNW 15.0 mph - N/A   Clear
2:52 AM -2.9 °F -23.8 °F -11.9 °F 65% 30.34 in 10.0 mi WNW 16.1 mph - N/A   Clear
3:52 AM -2.9 °F -25.0 °F -11.9 °F 65% 30.35 in 10.0 mi WNW 18.4 mph - N/A   Clear
4:52 AM -2.9 °F -26.1 °F -13.0 °F 62% 30.39 in 10.0 mi WNW 20.7 mph - N/A   Clear
5:52 AM -4.0 °F -27.0 °F -13.0 °F 65% 30.42 in 10.0 mi WNW 19.6 mph - N/A   Clear
6:52 AM -4.0 °F -27.6 °F -13.0 °F 65% 30.46 in 10.0 mi WNW 20.7 mph - N/A   Clear
7:52 AM -4.0 °F -25.8 °F -11.9 °F 69% 30.49 in 10.0 mi WNW 17.3 mph - N/A   Clear
8:52 AM -2.0 °F -23.9 °F -11.0 °F 66% 30.52 in 10.0 mi WNW 18.4 mph - N/A   Clear
9:52 AM -0.0 °F -21.8 °F -9.0 °F 66% 30.55 in 10.0 mi NW 19.6 mph - N/A   Clear
10:49 AM 1.4 °F -18.8 °F -7.6 °F 66% 30.51 in 8.0 mi NW 17.3 mph - N/A   Mostly Cloudy
10:52 AM 1.9 °F -18.1 °F -7.1 °F 66% 30.57 in 6.0 mi NW 17.3 mph - N/A   Haze
11:52 AM 3.0 °F -17.3 °F -5.1 °F 69% 30.58 in 10.0 mi WNW 18.4 mph - N/A   Scattered Clouds
12:52 PM 3.9 °F -16.1 °F -5.1 °F 66% 30.59 in 10.0 mi NW 18.4 mph - N/A   Clear
1:52 PM 3.9 °F -16.1 °F -5.1 °F 66% 30.60 in 10.0 mi WNW 18.4 mph - N/A   Clear
2:52 PM 3.9 °F -18.1 °F -5.1 °F 66% 30.61 in 10.0 mi WNW 23.0 mph - N/A   Clear
3:52 PM 3.0 °F -17.3 °F -5.1 °F 69% 30.63 in 10.0 mi WNW 18.4 mph - N/A   Clear
4:52 PM 1.9 °F -16.9 °F -6.0 °F 69% 30.65 in 10.0 mi WNW 15.0 mph - N/A   Clear
5:52 PM 1.0 °F -14.9 °F -8.0 °F 66% 30.65 in 10.0 mi WNW 10.4 mph - N/A   Clear
6:52 PM -2.0 °F -17.7 °F -9.0 °F 72% 30.67 in 10.0 mi West 9.2 mph - N/A   Clear
7:52 PM -2.9 °F -20.8 °F -9.9 °F 72% 30.66 in 10.0 mi West 11.5 mph - N/A   Clear
8:52 PM -4.0 °F -23.7 °F -11.9 °F 69% 30.66 in 10.0 mi West 13.8 mph - N/A   Clear
9:52 PM -6.0 °F -24.6 °F -13.0 °F 72% 30.64 in 10.0 mi West 11.5 mph - N/A   Clear
10:52 PM -7.1 °F -23.9 °F -14.1 °F 72% 30.63 in 10.0 mi West 9.2 mph - N/A   Clear
11:52 PM -8.0 °F -25.0 °F -15.0 °F 71% 30.60 in 10.0 mi West 9.2 mph - N/A   Clear